Location: Oberkirch
(48.5323°N, 8.0787°E)
Time: 23:09:17
(UTC+00:00)

CUBEBUG 2 - Pass Details

Date: 21 March 2026
Orbit: 548 x 627 km, 97.9° (Epoch: 13 April)

Event Time Altitude Azimuth Distance (km) Brightness Sun altitude
Rises 02:40:12 0° 6° (N) 2,913 ? -27.1°
Reaches altitude 10° 02:42:31 10° 358° (N) 2,009 ? -26.7°
Enters shadow 02:44:44 25° 337° (NNW) 1,273 ? -26.4°
